Wetterdaten: aktuell Freitag, 18.10.2019 11:55
Datum Zeit Temp. 2m Luftf.2m Luftdruck Regen Wind Richtung Richtung Taupunkt Windchill
18.10.2019 11:55 8,5 C 97 % 1017,7 hPa 0,0 l/m 3,1 km/h (1 Bft) O-NO 71 8,1 C 8,5 C
18.10.2019 11:54 8,5 C 97 % 1017,7 hPa 0,0 l/m 1,7 km/h (1 Bft) O-NO 71 8,1 C 8,5 C
18.10.2019 11:53 8,5 C 97 % 1017,7 hPa 0,0 l/m 1,7 km/h (1 Bft) O-NO 71 8,1 C 8,5 C
18.10.2019 11:52 8,5 C 97 % 1017,7 hPa 0,0 l/m 0,0 km/h (0 Bft) O-NO 71 8,1 C 8,5 C
18.10.2019 11:51 8,5 C 97 % 1017,8 hPa 0,0 l/m 0,0 km/h (0 Bft) O-NO 71 8,1 C 8,5 C
18.10.2019 11:50 8,5 C 97 % 1017,8 hPa 0,0 l/m 0,0 km/h (0 Bft) O-NO 71 8,1 C 8,5 C
18.10.2019 11:49 8,5 C 97 % 1017,8 hPa 0,0 l/m 3,1 km/h (1 Bft) O-NO 71 8,1 C 8,5 C
18.10.2019 11:48 8,5 C 97 % 1017,8 hPa 0,0 l/m 4,8 km/h (1 Bft) O-NO 71 8,1 C 8,5 C
18.10.2019 11:47 8,5 C 97 % 1017,8 hPa 0,0 l/m 1,7 km/h (1 Bft) O-NO 71 8,1 C 8,5 C
18.10.2019 11:46 8,5 C 97 % 1017,8 hPa 0,0 l/m 1,7 km/h (1 Bft) O-NO 71 8,1 C 8,5 C
18.10.2019 11:45 8,4 C 97 % 1017,8 hPa 0,0 l/m 0,0 km/h (0 Bft) O-NO 71 8,0 C 8,4 C
18.10.2019 11:44 8,4 C 97 % 1017,8 hPa 0,0 l/m 0,0 km/h (0 Bft) O-NO 71 8,0 C 8,4 C
18.10.2019 11:43 8,4 C 97 % 1017,9 hPa 0,0 l/m 0,0 km/h (0 Bft) O-NO 71 8,0 C 8,4 C
18.10.2019 11:42 8,4 C 97 % 1017,9 hPa 0,0 l/m 0,0 km/h (0 Bft) O-NO 71 8,0 C 8,4 C
18.10.2019 11:41 8,4 C 97 % 1017,9 hPa 0,0 l/m 0,0 km/h (0 Bft) O-NO 71 8,0 C 8,4 C
18.10.2019 11:40 8,4 C 97 % 1017,9 hPa 0,0 l/m 0,0 km/h (0 Bft) O-NO 71 8,0 C 8,4 C
18.10.2019 11:39 8,4 C 97 % 1017,8 hPa 0,0 l/m 0,0 km/h (0 Bft) O-NO 71 8,0 C 8,4 C
18.10.2019 11:38 8,4 C 97 % 1017,9 hPa 0,0 l/m 0,0 km/h (0 Bft) O-NO 71 8,0 C 8,4 C
18.10.2019 11:37 8,4 C 97 % 1017,8 hPa 0,0 l/m 3,1 km/h (1 Bft) O-NO 71 8,0 C 8,4 C
18.10.2019 11:36 8,4 C 97 % 1017,8 hPa 0,0 l/m 3,1 km/h (1 Bft) O-NO 71 8,0 C 8,4 C
18.10.2019 11:35 8,4 C 97 % 1017,8 hPa 0,0 l/m 0,0 km/h (0 Bft) O-NO 71 8,0 C 8,4 C
18.10.2019 11:34 8,4 C 97 % 1017,8 hPa 0,0 l/m 0,0 km/h (0 Bft) O-NO 71 8,0 C 8,4 C
18.10.2019 11:33 8,4 C 97 % 1017,9 hPa 0,0 l/m 1,7 km/h (1 Bft) O-NO 71 8,0 C 8,4 C
18.10.2019 11:32 8,4 C 97 % 1017,9 hPa 0,0 l/m 1,7 km/h (1 Bft) O-NO 71 8,0 C 8,4 C
18.10.2019 11:31 8,3 C 97 % 1017,9 hPa 0,0 l/m 3,1 km/h (1 Bft) O-NO 71 7,9 C 8,3 C
18.10.2019 11:30 8,3 C 97 % 1017,9 hPa 0,0 l/m 1,7 km/h (1 Bft) O-NO 71 7,9 C 8,3 C
18.10.2019 11:29 8,3 C 97 % 1017,9 hPa 0,0 l/m 1,7 km/h (1 Bft) O-NO 71 7,9 C 8,3 C
18.10.2019 11:28 8,3 C 97 % 1017,9 hPa 0,0 l/m 0,0 km/h (0 Bft) O-NO 71 7,9 C 8,3 C
18.10.2019 11:27 8,3 C 97 % 1017,9 hPa 0,0 l/m 1,7 km/h (1 Bft) O-NO 71 7,9 C 8,3 C
18.10.2019 11:26 8,2 C 97 % 1017,9 hPa 0,0 l/m 1,7 km/h (1 Bft) O-NO 71 7,8 C 8,2 C
18.10.2019 11:25 8,2 C 97 % 1017,9 hPa 0,0 l/m 3,1 km/h (1 Bft) O-NO 71 7,8 C 8,2 C
18.10.2019 11:24 8,2 C 97 % 1017,9 hPa 0,0 l/m 0,0 km/h (0 Bft) O-NO 71 7,8 C 8,2 C
18.10.2019 11:23 8,2 C 97 % 1017,9 hPa 0,0 l/m 3,1 km/h (1 Bft) O-NO 71 7,8 C 8,2 C
18.10.2019 11:22 8,1 C 97 % 1018,0 hPa 0,0 l/m 1,7 km/h (1 Bft) O-NO 71 7,7 C 8,1 C
18.10.2019 11:21 8,1 C 97 % 1017,9 hPa 0,0 l/m 1,7 km/h (1 Bft) O-NO 71 7,7 C 8,1 C
18.10.2019 11:20 8,1 C 97 % 1017,9 hPa 0,0 l/m 3,1 km/h (1 Bft) O-NO 71 7,7 C 8,1 C
18.10.2019 11:19 8,1 C 97 % 1018,1 hPa 0,0 l/m 0,0 km/h (0 Bft) O-NO 71 7,7 C 8,1 C
18.10.2019 11:18 8,1 C 97 % 1018,1 hPa 0,0 l/m 1,7 km/h (1 Bft) O-NO 71 7,7 C 8,1 C
18.10.2019 11:17 8,1 C 97 % 1018,1 hPa 0,0 l/m 3,1 km/h (1 Bft) O-NO 71 7,7 C 8,1 C
18.10.2019 11:16 8,0 C 97 % 1018,1 hPa 0,0 l/m 3,1 km/h (1 Bft) O-NO 71 7,6 C 8,0 C
18.10.2019 11:15 8,0 C 97 % 1018,1 hPa 0,0 l/m 0,0 km/h (0 Bft) O-NO 71 7,6 C 8,0 C
18.10.2019 11:14 8,0 C 97 % 1018,1 hPa 0,0 l/m 0,0 km/h (0 Bft) O-NO 71 7,6 C 8,0 C
18.10.2019 11:13 8,0 C 97 % 1018,1 hPa 0,0 l/m 0,0 km/h (0 Bft) O-NO 71 7,6 C 8,0 C
18.10.2019 11:12 8,0 C 97 % 1018,1 hPa 0,0 l/m 0,0 km/h (0 Bft) O-NO 71 7,6 C 8,0 C
18.10.2019 11:11 8,0 C 97 % 1018,1 hPa 0,0 l/m 0,0 km/h (0 Bft) O-NO 71 7,6 C 8,0 C
18.10.2019 11:10 8,0 C 97 % 1018,1 hPa 0,0 l/m 0,0 km/h (0 Bft) O-NO 71 7,6 C 8,0 C
18.10.2019 11:09 7,9 C 97 % 1018,2 hPa 0,0 l/m 0,0 km/h (0 Bft) O-NO 71 7,5 C 7,9 C
18.10.2019 11:08 7,9 C 97 % 1018,2 hPa 0,0 l/m 0,0 km/h (0 Bft) O-NO 71 7,5 C 7,9 C
18.10.2019 11:07 7,9 C 97 % 1018,2 hPa 0,0 l/m 0,0 km/h (0 Bft) O-NO 71 7,5 C 7,9 C
18.10.2019 11:06 7,9 C 97 % 1018,2 hPa 0,0 l/m 3,1 km/h (1 Bft) O-NO 71 7,5 C 7,9 C
18.10.2019 11:05 7,9 C 97 % 1018,2 hPa 0,0 l/m 4,8 km/h (1 Bft) O-NO 71 7,5 C 7,9 C
18.10.2019 11:04 7,9 C 97 % 1018,2 hPa 0,0 l/m 0,0 km/h (0 Bft) O-NO 71 7,5 C 7,9 C
18.10.2019 11:03 7,9 C 97 % 1018,3 hPa 0,0 l/m 1,7 km/h (1 Bft) O-NO 71 7,5 C 7,9 C
18.10.2019 11:01 7,9 C 97 % 1018,2 hPa 0,0 l/m 1,7 km/h (1 Bft) O-NO 71 7,5 C 7,9 C
18.10.2019 10:59 7,9 C 97 % 1018,3 hPa 0,0 l/m 0,0 km/h (0 Bft) O-NO 71 7,5 C 7,9 C
18.10.2019 10:58 7,9 C 97 % 1018,3 hPa 0,0 l/m 0,0 km/h (0 Bft) O-NO 71 7,5 C 7,9 C
18.10.2019 10:57 7,9 C 97 % 1018,3 hPa 0,0 l/m 0,0 km/h (0 Bft) O-NO 71 7,5 C 7,9 C
18.10.2019 10:56 7,9 C 97 % 1018,3 hPa 0,0 l/m 0,0 km/h (0 Bft) O-NO 71 7,5 C 7,9 C
18.10.2019 10:55 7,9 C 97 % 1018,2 hPa 0,0 l/m 0,0 km/h (0 Bft) O-NO 71 7,5 C 7,9 C
18.10.2019 10:54 7,9 C 97 % 1018,3 hPa 0,0 l/m 0,0 km/h (0 Bft) O-NO 71 7,5 C 7,9 C
18.10.2019 10:53 7,9 C 97 % 1018,3 hPa 0,0 l/m 0,0 km/h (0 Bft) O-NO 71 7,5 C 7,9 C
18.10.2019 10:52 7,9 C 97 % 1018,3 hPa 0,0 l/m 0,0 km/h (0 Bft) O-NO 71 7,5 C 7,9 C
18.10.2019 10:51 7,9 C 97 % 1018,3 hPa 0,0 l/m 0,0 km/h (0 Bft) O-NO 71 7,5 C 7,9 C
18.10.2019 10:50 7,8 C 97 % 1018,3 hPa 0,0 l/m 0,0 km/h (0 Bft) O-NO 71 7,4 C 7,8 C
18.10.2019 10:49 7,8 C 97 % 1018,3 hPa 0,0 l/m 0,0 km/h (0 Bft) O-NO 71 7,4 C 7,8 C
18.10.2019 10:48 7,8 C 97 % 1018,3 hPa 0,0 l/m 0,0 km/h (0 Bft) O-NO 71 7,4 C 7,8 C
18.10.2019 10:47 7,8 C 97 % 1018,3 hPa 0,0 l/m 0,0 km/h (0 Bft) O-NO 71 7,4 C 7,8 C
18.10.2019 10:46 7,7 C 97 % 1018,3 hPa 0,0 l/m 0,0 km/h (0 Bft) O-NO 71 7,3 C 7,7 C
18.10.2019 10:45 7,7 C 97 % 1018,3 hPa 0,0 l/m 0,0 km/h (0 Bft) O-NO 71 7,3 C 7,7 C
18.10.2019 10:44 7,6 C 97 % 1018,3 hPa 0,0 l/m 1,7 km/h (1 Bft) O-NO 71 7,2 C 7,6 C
18.10.2019 10:43 7,6 C 97 % 1018,3 hPa 0,0 l/m 0,0 km/h (0 Bft) O-NO 71 7,2 C 7,6 C
18.10.2019 10:42 7,6 C 97 % 1018,3 hPa 0,0 l/m 0,0 km/h (0 Bft) O-NO 71 7,2 C 7,6 C
18.10.2019 10:41 7,6 C 97 % 1018,3 hPa 0,0 l/m 0,0 km/h (0 Bft) O-NO 71 7,2 C 7,6 C
18.10.2019 10:40 7,6 C 97 % 1018,3 hPa 0,0 l/m 0,0 km/h (0 Bft) O-NO 71 7,2 C 7,6 C
18.10.2019 10:39 7,5 C 97 % 1018,3 hPa 0,0 l/m 0,0 km/h (0 Bft) O-NO 71 7,1 C 7,5 C
18.10.2019 10:38 7,5 C 97 % 1018,3 hPa 0,0 l/m 0,0 km/h (0 Bft) O-NO 71 7,1 C 7,5 C
18.10.2019 10:37 7,5 C 97 % 1018,3 hPa 0,0 l/m 0,0 km/h (0 Bft) O-NO 71 7,1 C 7,5 C
18.10.2019 10:36 7,5 C 97 % 1018,4 hPa 0,0 l/m 0,0 km/h (0 Bft) O-NO 71 7,1 C 7,5 C
18.10.2019 10:35 7,5 C 97 % 1018,4 hPa 0,0 l/m 0,0 km/h (0 Bft) O-NO 71 7,1 C 7,5 C
18.10.2019 10:34 7,5 C 97 % 1018,4 hPa 0,0 l/m 0,0 km/h (0 Bft) O-NO 71 7,1 C 7,5 C
18.10.2019 10:33 7,5 C 97 % 1018,4 hPa 0,0 l/m 0,0 km/h (0 Bft) O-NO 71 7,1 C 7,5 C
18.10.2019 10:32 7,5 C 97 % 1018,4 hPa 0,0 l/m 0,0 km/h (0 Bft) O-NO 71 7,1 C 7,5 C
18.10.2019 10:31 7,5 C 97 % 1018,4 hPa 0,0 l/m 0,0 km/h (0 Bft) O-NO 71 7,1 C 7,5 C
18.10.2019 10:30 7,5 C 97 % 1018,4 hPa 0,0 l/m 0,0 km/h (0 Bft) O-NO 71 7,1 C 7,5 C
18.10.2019 10:29 7,5 C 97 % 1018,4 hPa 0,0 l/m 0,0 km/h (0 Bft) O-NO 71 7,1 C 7,5 C
18.10.2019 10:28 7,5 C 97 % 1018,4 hPa 0,0 l/m 0,0 km/h (0 Bft) O-NO 71 7,1 C 7,5 C
18.10.2019 10:27 7,5 C 97 % 1018,5 hPa 0,0 l/m 0,0 km/h (0 Bft) O-NO 71 7,1 C 7,5 C
18.10.2019 10:26 7,5 C 97 % 1018,4 hPa 0,0 l/m 0,0 km/h (0 Bft) O-NO 71 7,1 C 7,5 C
18.10.2019 10:25 7,4 C 97 % 1018,4 hPa 0,0 l/m 0,0 km/h (0 Bft) O-NO 71 7,0 C 7,4 C
18.10.2019 10:24 7,4 C 97 % 1018,4 hPa 0,0 l/m 0,0 km/h (0 Bft) O-NO 71 7,0 C 7,4 C
18.10.2019 10:23 7,4 C 97 % 1018,5 hPa 0,0 l/m 0,0 km/h (0 Bft) O-NO 71 7,0 C 7,4 C
18.10.2019 10:22 7,4 C 97 % 1018,4 hPa 0,0 l/m 0,0 km/h (0 Bft) O-NO 71 7,0 C 7,4 C
18.10.2019 10:21 7,4 C 97 % 1018,4 hPa 0,0 l/m 0,0 km/h (0 Bft) O-NO 71 7,0 C 7,4 C
18.10.2019 10:20 7,4 C 97 % 1018,4 hPa 0,0 l/m 0,0 km/h (0 Bft) O-NO 71 7,0 C 7,4 C
18.10.2019 10:19 7,4 C 97 % 1018,5 hPa 0,0 l/m 0,0 km/h (0 Bft) O-NO 71 7,0 C 7,4 C
18.10.2019 10:18 7,4 C 96 % 1018,5 hPa 0,0 l/m 0,0 km/h (0 Bft) O-NO 71 6,8 C 7,4 C
18.10.2019 10:17 7,3 C 96 % 1018,5 hPa 0,0 l/m 0,0 km/h (0 Bft) O-NO 71 6,7 C 7,3 C
18.10.2019 10:16 7,3 C 96 % 1018,5 hPa 0,0 l/m 0,0 km/h (0 Bft) O-NO 71 6,7 C 7,3 C
18.10.2019 10:15 7,3 C 96 % 1018,5 hPa 0,0 l/m 0,0 km/h (0 Bft) O-NO 71 6,7 C 7,3 C
18.10.2019 10:14 7,3 C 96 % 1018,5 hPa 0,0 l/m 0,0 km/h (0 Bft) O-NO 71 6,7 C 7,3 C
18.10.2019 10:13 7,3 C 96 % 1018,5 hPa 0,0 l/m 0,0 km/h (0 Bft) O-NO 71 6,7 C 7,3 C
18.10.2019 10:12 7,3 C 96 % 1018,5 hPa 0,0 l/m 0,0 km/h (0 Bft) O-NO 71 6,7 C 7,3 C
18.10.2019 10:11 7,3 C 96 % 1018,5 hPa 0,0 l/m 0,0 km/h (0 Bft) O-NO 71 6,7 C 7,3 C
18.10.2019 10:10 7,3 C 96 % 1018,5 hPa 0,0 l/m 0,0 km/h (0 Bft) O-NO 71 6,7 C 7,3 C
18.10.2019 10:09 7,3 C 96 % 1018,5 hPa 0,0 l/m 0,0 km/h (0 Bft) O-NO 71 6,7 C 7,3 C
18.10.2019 10:08 7,3 C 96 % 1018,5 hPa 0,0 l/m 0,0 km/h (0 Bft) O-NO 71 6,7 C 7,3 C
18.10.2019 10:07 7,3 C 96 % 1018,4 hPa 0,0 l/m 0,0 km/h (0 Bft) O-NO 71 6,7 C 7,3 C
18.10.2019 10:06 7,2 C 96 % 1018,4 hPa 0,0 l/m 0,0 km/h (0 Bft) O-NO 71 6,6 C 7,2 C
18.10.2019 10:05 7,2 C 96 % 1018,5 hPa 0,0 l/m 0,0 km/h (0 Bft) O-NO 71 6,6 C 7,2 C
18.10.2019 10:04 7,2 C 96 % 1018,4 hPa 0,0 l/m 0,0 km/h (0 Bft) O-NO 71 6,6 C 7,2 C
18.10.2019 10:03 7,2 C 96 % 1018,5 hPa 0,0 l/m 1,7 km/h (1 Bft) O-NO 71 6,6 C 7,2 C
18.10.2019 10:02 7,2 C 96 % 1018,4 hPa 0,0 l/m 3,1 km/h (1 Bft) O-NO 71 6,6 C 7,2 C
18.10.2019 10:01 7,2 C 96 % 1018,4 hPa 0,0 l/m 0,0 km/h (0 Bft) O-NO 71 6,6 C 7,2 C
18.10.2019 10:00 7,2 C 97 % 1018,4 hPa 0,0 l/m 0,0 km/h (0 Bft) O-NO 71 6,8 C 7,2 C
18.10.2019 09:59 7,1 C 97 % 1018,4 hPa 0,0 l/m 0,0 km/h (0 Bft) O-NO 71 6,7 C 7,1 C
18.10.2019 09:58 7,1 C 97 % 1018,4 hPa 0,0 l/m 0,0 km/h (0 Bft) O-NO 71 6,7 C 7,1 C
18.10.2019 09:57 7,1 C 97 % 1018,4 hPa 0,0 l/m 0,0 km/h (0 Bft) O-NO 71 6,7 C 7,1 C
18.10.2019 09:56 7,1 C 97 % 1018,4 hPa 0,0 l/m 0,0 km/h (0 Bft) O-NO 71 6,7 C 7,1 C
18.10.2019 09:55 7,1 C 97 % 1018,4 hPa 0,0 l/m 0,0 km/h (0 Bft) O-NO 71 6,7 C 7,1 C
18.10.2019 09:54 7,1 C 97 % 1018,4 hPa 0,0 l/m 0,0 km/h (0 Bft) O-NO 71 6,7 C 7,1 C
18.10.2019 09:53 7,1 C 97 % 1018,3 hPa 0,0 l/m 0,0 km/h (0 Bft) O-NO 71 6,7 C 7,1 C
18.10.2019 09:52 7,1 C 97 % 1018,4 hPa 0,0 l/m 3,1 km/h (1 Bft) O-NO 71 6,7 C 7,1 C
18.10.2019 09:51 7,1 C 97 % 1018,4 hPa 0,0 l/m 0,0 km/h (0 Bft) O-NO 71 6,7 C 7,1 C
18.10.2019 09:50 7,1 C 97 % 1018,5 hPa 0,0 l/m 0,0 km/h (0 Bft) O-NO 71 6,7 C 7,1 C
18.10.2019 09:49 7,1 C 97 % 1018,4 hPa 0,0 l/m 0,0 km/h (0 Bft) O-NO 71 6,7 C 7,1 C
18.10.2019 09:48 7,1 C 97 % 1018,5 hPa 0,0 l/m 0,0 km/h (0 Bft) O-NO 71 6,7 C 7,1 C
18.10.2019 09:47 7,1 C 97 % 1018,4 hPa 0,0 l/m 0,0 km/h (0 Bft) O-NO 71 6,7 C 7,1 C
18.10.2019 09:46 7,1 C 97 % 1018,4 hPa 0,0 l/m 0,0 km/h (0 Bft) O-NO 71 6,7 C 7,1 C
18.10.2019 09:45 7,1 C 97 % 1018,4 hPa 0,0 l/m 0,0 km/h (0 Bft) O-NO 71 6,7 C 7,1 C
18.10.2019 09:44 7,0 C 97 % 1018,4 hPa 0,0 l/m 0,0 km/h (0 Bft) O-NO 71 6,6 C 7,0 C
18.10.2019 09:43 7,0 C 97 % 1018,5 hPa 0,0 l/m 0,0 km/h (0 Bft) O-NO 71 6,6 C 7,0 C
18.10.2019 09:42 7,0 C 97 % 1018,5 hPa 0,0 l/m 0,0 km/h (0 Bft) O-NO 71 6,6 C 7,0 C
18.10.2019 09:41 7,0 C 96 % 1018,5 hPa 0,0 l/m 0,0 km/h (0 Bft) O-NO 71 6,4 C 7,0 C
18.10.2019 09:40 7,0 C 96 % 1018,5 hPa 0,0 l/m 0,0 km/h (0 Bft) O-NO 71 6,4 C 7,0 C
18.10.2019 09:39 7,0 C 96 % 1018,5 hPa 0,0 l/m 0,0 km/h (0 Bft) O-NO 71 6,4 C 7,0 C
18.10.2019 09:38 6,9 C 96 % 1018,5 hPa 0,0 l/m 0,0 km/h (0 Bft) O-NO 71 6,3 C 6,9 C
18.10.2019 09:37 6,9 C 96 % 1018,4 hPa 0,0 l/m 0,0 km/h (0 Bft) O-NO 71 6,3 C 6,9 C
18.10.2019 09:36 6,9 C 96 % 1018,4 hPa 0,0 l/m 0,0 km/h (0 Bft) O-NO 71 6,3 C 6,9 C
18.10.2019 09:35 6,9 C 96 % 1018,4 hPa 0,0 l/m 0,0 km/h (0 Bft) O-NO 71 6,3 C 6,9 C
18.10.2019 09:34 6,9 C 96 % 1018,4 hPa 0,0 l/m 0,0 km/h (0 Bft) O-NO 71 6,3 C 6,9 C
18.10.2019 09:33 6,9 C 96 % 1018,4 hPa 0,0 l/m 0,0 km/h (0 Bft) O-NO 71 6,3 C 6,9 C
18.10.2019 09:32 6,9 C 97 % 1018,4 hPa 0,0 l/m 0,0 km/h (0 Bft) O-NO 71 6,5 C 6,9 C
18.10.2019 09:31 6,8 C 97 % 1018,4 hPa 0,0 l/m 0,0 km/h (0 Bft) O-NO 71 6,4 C 6,8 C
18.10.2019 09:30 6,8 C 97 % 1018,4 hPa 0,0 l/m 0,0 km/h (0 Bft) O-NO 71 6,4 C 6,8 C
18.10.2019 09:29 6,8 C 97 % 1018,4 hPa 0,0 l/m 0,0 km/h (0 Bft) O-NO 71 6,4 C 6,8 C
18.10.2019 09:28 6,8 C 96 % 1018,4 hPa 0,0 l/m 0,0 km/h (0 Bft) O-NO 71 6,2 C 6,8 C
18.10.2019 09:27 6,8 C 97 % 1018,4 hPa 0,0 l/m 0,0 km/h (0 Bft) O-NO 71 6,4 C 6,8 C
18.10.2019 09:26 6,7 C 96 % 1018,4 hPa 0,0 l/m 0,0 km/h (0 Bft) O-NO 71 6,1 C 6,7 C
18.10.2019 09:25 6,7 C 97 % 1018,5 hPa 0,0 l/m 0,0 km/h (0 Bft) O-NO 71 6,3 C 6,7 C
18.10.2019 09:24 6,7 C 97 % 1018,4 hPa 0,0 l/m 0,0 km/h (0 Bft) O-NO 71 6,3 C 6,7 C
18.10.2019 09:23 6,6 C 97 % 1018,4 hPa 0,0 l/m 0,0 km/h (0 Bft) O-NO 71 6,2 C 6,6 C
18.10.2019 09:22 6,6 C 96 % 1018,4 hPa 0,0 l/m 0,0 km/h (0 Bft) O-NO 71 6,0 C 6,6 C
18.10.2019 09:21 6,6 C 96 % 1018,4 hPa 0,0 l/m 0,0 km/h (0 Bft) O-NO 71 6,0 C 6,6 C
18.10.2019 09:20 6,6 C 96 % 1018,5 hPa 0,0 l/m 0,0 km/h (0 Bft) O-NO 71 6,0 C 6,6 C
18.10.2019 09:19 6,6 C 96 % 1018,5 hPa 0,0 l/m 0,0 km/h (0 Bft) O-NO 71 6,0 C 6,6 C
18.10.2019 09:18 6,6 C 96 % 1018,5 hPa 0,0 l/m 0,0 km/h (0 Bft) O-NO 71 6,0 C 6,6 C
18.10.2019 09:17 6,5 C 96 % 1018,6 hPa 0,0 l/m 0,0 km/h (0 Bft) O-NO 71 5,9 C 6,5 C
18.10.2019 09:16 6,5 C 96 % 1018,5 hPa 0,0 l/m 0,0 km/h (0 Bft) O-NO 71 5,9 C 6,5 C
18.10.2019 09:15 6,5 C 96 % 1018,5 hPa 0,0 l/m 0,0 km/h (0 Bft) O-NO 71 5,9 C 6,5 C
18.10.2019 09:13 6,5 C 96 % 1018,5 hPa 0,0 l/m 0,0 km/h (0 Bft) O-NO 71 5,9 C 6,5 C
18.10.2019 09:12 6,5 C 96 % 1018,5 hPa 0,0 l/m 0,0 km/h (0 Bft) O-NO 71 5,9 C 6,5 C
18.10.2019 09:10 6,5 C 96 % 1018,5 hPa 0,0 l/m 0,0 km/h (0 Bft) O-NO 71 5,9 C 6,5 C
18.10.2019 09:09 6,5 C 96 % 1018,5 hPa 0,0 l/m 0,0 km/h (0 Bft) O-NO 71 5,9 C 6,5 C
18.10.2019 09:07 6,4 C 96 % 1018,5 hPa 0,0 l/m 0,0 km/h (0 Bft) O-NO 71 5,8 C 6,4 C
18.10.2019 09:06 6,4 C 96 % 1018,5 hPa 0,0 l/m 0,0 km/h (0 Bft) O-NO 71 5,8 C 6,4 C
18.10.2019 09:05 6,4 C 96 % 1018,5 hPa 0,0 l/m 0,0 km/h (0 Bft) O-NO 71 5,8 C 6,4 C
18.10.2019 09:04 6,4 C 96 % 1018,4 hPa 0,0 l/m 0,0 km/h (0 Bft) O-NO 71 5,8 C 6,4 C
18.10.2019 09:03 6,4 C 96 % 1018,4 hPa 0,0 l/m 0,0 km/h (0 Bft) O-NO 71 5,8 C 6,4 C
18.10.2019 09:02 6,4 C 96 % 1018,4 hPa 0,0 l/m 0,0 km/h (0 Bft) O-NO 71 5,8 C 6,4 C
18.10.2019 09:01 6,4 C 96 % 1018,4 hPa 0,0 l/m 0,0 km/h (0 Bft) O-NO 71 5,8 C 6,4 C
18.10.2019 09:00 6,3 C 96 % 1018,4 hPa 0,0 l/m 0,0 km/h (0 Bft) O-NO 71 5,7 C 6,3 C
18.10.2019 08:59 6,3 C 96 % 1018,4 hPa 0,0 l/m 0,0 km/h (0 Bft) O-NO 71 5,7 C 6,3 C
18.10.2019 08:58 6,3 C 96 % 1018,4 hPa 0,0 l/m 0,0 km/h (0 Bft) O-NO 71 5,7 C 6,3 C
18.10.2019 08:57 6,3 C 96 % 1018,4 hPa 0,0 l/m 0,0 km/h (0 Bft) O-NO 71 5,7 C 6,3 C
18.10.2019 08:56 6,3 C 96 % 1018,5 hPa 0,0 l/m 0,0 km/h (0 Bft) O-NO 70 5,7 C 6,3 C
18.10.2019 08:55 6,3 C 96 % 1018,5 hPa 0,0 l/m 0,0 km/h (0 Bft) O-NO 70 5,7 C 6,3 C
18.10.2019 08:54 6,3 C 96 % 1018,5 hPa 0,0 l/m 0,0 km/h (0 Bft) O-NO 70 5,7 C 6,3 C
18.10.2019 08:53 6,2 C 96 % 1018,5 hPa 0,0 l/m 0,0 km/h (0 Bft) O-NO 70 5,6 C 6,2 C
18.10.2019 08:52 6,2 C 96 % 1018,5 hPa 0,0 l/m 0,0 km/h (0 Bft) O-NO 70 5,6 C 6,2 C
18.10.2019 08:51 6,2 C 96 % 1018,5 hPa 0,0 l/m 0,0 km/h (0 Bft) O-NO 70 5,6 C 6,2 C
18.10.2019 08:50 6,1 C 96 % 1018,5 hPa 0,0 l/m 0,0 km/h (0 Bft) O-NO 70 5,5 C 6,1 C
18.10.2019 08:47 6,1 C 96 % 1018,5 hPa 0,0 l/m 0,0 km/h (0 Bft) O-NO 70 5,5 C 6,1 C
18.10.2019 08:46 6,1 C 96 % 1018,4 hPa 0,0 l/m 0,0 km/h (0 Bft) O-NO 70 5,5 C 6,1 C
18.10.2019 08:45 6,1 C 96 % 1018,4 hPa 0,0 l/m 0,0 km/h (0 Bft) O-NO 70 5,5 C 6,1 C
18.10.2019 08:44 6,0 C 96 % 1018,4 hPa 0,0 l/m 0,0 km/h (0 Bft) O-NO 70 5,4 C 6,0 C
18.10.2019 08:43 6,0 C 96 % 1018,4 hPa 0,0 l/m 0,0 km/h (0 Bft) O-NO 70 5,4 C 6,0 C
18.10.2019 08:42 6,0 C 96 % 1018,4 hPa 0,0 l/m 0,0 km/h (0 Bft) O-NO 70 5,4 C 6,0 C
18.10.2019 08:41 6,0 C 96 % 1018,4 hPa 0,0 l/m 0,0 km/h (0 Bft) O-NO 70 5,4 C 6,0 C
18.10.2019 08:40 6,0 C 96 % 1018,3 hPa 0,0 l/m 0,0 km/h (0 Bft) O-NO 70 5,4 C 6,0 C
18.10.2019 08:38 5,9 C 96 % 1018,2 hPa 0,0 l/m 0,0 km/h (0 Bft) O-NO 70 5,3 C 5,9 C
18.10.2019 08:36 5,9 C 96 % 1018,2 hPa 0,0 l/m 0,0 km/h (0 Bft) O-NO 70 5,3 C 5,9 C
18.10.2019 08:35 5,9 C 96 % 1018,2 hPa 0,0 l/m 0,0 km/h (0 Bft) O-NO 70 5,3 C 5,9 C
18.10.2019 08:34 5,9 C 96 % 1018,2 hPa 0,0 l/m 0,0 km/h (0 Bft) O-NO 70 5,3 C 5,9 C
_ Min-Zeit 08:34 08:34 11:52 - 08:34 - - 08:34 08:34
Minimum _ 5,9 C 96 % 1017,7 hPa - 0,0 km/h (0 Bft) - - 5,3 C 5,9 C
_ Max-Zeit 11:46 09:23 09:17 08:34 11:05 - - 11:46 11:46
Maximum _ 8,5 C 97 % 1018,6 hPa 0,0 l/m 4,8 km/h
O-NO (1 Bft)
- - 8,1 C 8,5 C
Durchschnitt _ 6,8 C 96 % 1018,3 hPa #0,0 l/m 0,3 km/h (0 Bft) O-NO - 6,3 C 6,8 C